Weather History for Meridian, MS

Change the Weather History Date:

Tuesday, April 30, 2013

  Actual Average Record
Temperature  
Mean Temperature 67 °F 66 °F  
Max Temperature 82 °F 80 °F 92 °F (1987)
Min Temperature 52 °F 54 °F 39 °F (1965)
Degree Days  
Heating Degree Days 0 2  
Month to date heating degree days 136 130  
Since 1 July heating degree days 2457 2534  
Cooling Degree Days 2 3  
Month to date cooling degree days 67 59  
Year to date cooling degree days 86 83  
Growing Degree Days 17 (Base 50)    
Moisture  
Dew Point 60 °F    
Average Humidity 76    
Maximum Humidity 100    
Minimum Humidity 51    
Precipitation  
Precipitation 0.14 in 0.14 in 2.98 in (1940)
Month to date precipitation 5.22 4.78  
Year to date precipitation 27.80 20.93  
Sea Level Pressure  
Sea Level Pressure 29.94 in    
Wind  
Wind Speed 3 mph (SE)    
Max Wind Speed 17 mph    
Max Gust Speed 21 mph    
Visibility 9 miles    
Events Rain    
T = Trace of Precipitation, MM = Missing Value Source: NWS Daily Summary

Daily Weather History Graph

Daily Weather History Graph

Search for Another Location

Airport:

Trip Planner

Search our weather history database for the weather conditions in past years. The results will help you decide how hot, cold, wet, or windy it might be!

Date:

Astronomy

Apr. 30, 2013 Rise Set
Actual Time 6:09 AM CDT 7:35 PM CDT
Civil Twilight 5:43 AM CDT 8:01 PM CDT
Nautical Twilight 5:12 AM CDT 8:32 PM CDT
Astronomical Twilight 4:39 AM CDT 9:05 PM CDT
Moon No Moon Rise 10:41 AM CDT (4/30)
Length of Visible Light 14h 18m
Length of Day
13h 26m
Waning Gibbous, 70% of the Moon is Illuminated
Apr 30
Waning Gibbous
May 2
Last Quarter
May 9
New
May 17
First Quarter
May 24
Full

Hourly Weather History & Observations

Time (CDT) Temp. Heat Index Dew Point Humidity Pressure Visibility Wind Dir Wind Speed Gust Speed Precip Events Conditions
12:58 AM 57.9 °F - 57.0 °F 97% 29.94 in 8.0 mi Calm Calm - N/A   Clear
1:58 AM 57.0 °F - 55.9 °F 96% 29.93 in 7.0 mi Calm Calm - N/A   Clear
2:58 AM 55.9 °F - 55.0 °F 97% 29.93 in 7.0 mi Calm Calm - N/A   Clear
3:58 AM 55.0 °F - 54.0 °F 96% 29.92 in 7.0 mi Calm Calm - N/A   Clear
4:16 AM 55.4 °F - 53.6 °F 94% 29.93 in 7.0 mi Calm Calm - N/A   Partly Cloudy
4:58 AM 53.1 °F - 53.1 °F 100% 29.93 in 8.0 mi Calm Calm - N/A   Clear
5:58 AM 53.1 °F - 52.0 °F 96% 29.93 in 8.0 mi Calm Calm - N/A   Clear
6:58 AM 55.0 °F - 54.0 °F 96% 29.95 in 8.0 mi Calm Calm - N/A   Clear
7:58 AM 62.1 °F - 59.0 °F 90% 29.96 in 8.0 mi Calm Calm - N/A   Clear
8:58 AM 69.1 °F - 63.0 °F 81% 29.96 in 10.0 mi Calm Calm - N/A   Clear
9:58 AM 75.0 °F - 63.0 °F 66% 29.96 in 10.0 mi Variable 4.6 mph - N/A   Clear
10:58 AM 78.1 °F - 63.0 °F 60% 29.97 in 10.0 mi SSE 9.2 mph - N/A   Clear
11:58 AM 78.1 °F - 60.1 °F 54% 29.96 in 10.0 mi East 6.9 mph - N/A   Mostly Cloudy
12:58 PM 79.0 °F - 61.0 °F 54% 29.95 in 10.0 mi ESE 8.1 mph - N/A   Scattered Clouds
1:58 PM 81.0 °F 81.7 °F 61.0 °F 50% 29.93 in 10.0 mi SSE 10.4 mph 17.3 mph N/A   Mostly Cloudy
2:58 PM 81.0 °F 81.7 °F 61.0 °F 50% 29.91 in 10.0 mi East 8.1 mph - N/A   Partly Cloudy
3:58 PM 80.1 °F 81.1 °F 61.0 °F 52% 29.90 in 10.0 mi ESE 6.9 mph - N/A   Clear
4:58 PM 78.1 °F - 64.0 °F 62% 29.90 in 10.0 mi ESE 4.6 mph - N/A   Clear
5:58 PM 70.0 °F - 63.0 °F 78% 29.92 in 10.0 mi SSW 8.1 mph - N/A   Overcast
6:58 PM 69.1 °F - 64.0 °F 84% 29.93 in 10.0 mi Calm Calm - N/A   Partly Cloudy
7:58 PM 68.0 °F - 64.0 °F 87% 29.93 in 10.0 mi Calm Calm - 0.01 in   Clear
8:58 PM 66.9 °F - 64.0 °F 90% 29.94 in 10.0 mi Calm Calm - N/A   Scattered Clouds
9:58 PM 66.0 °F - 64.0 °F 93% 29.95 in 10.0 mi Calm Calm - N/A   Partly Cloudy
10:58 PM 64.9 °F - 64.0 °F 97% 29.97 in 10.0 mi SSW 3.5 mph - N/A   Mostly Cloudy
11:53 PM 66.2 °F - 64.4 °F 94% 29.98 in 2.5 mi Calm Calm - 0.08 in Rain Light Rain
11:58 PM 64.9 °F - 64.9 °F 100% 29.96 in 4.0 mi WSW 3.5 mph - 0.09 in Rain Rain